Tous vos exploits sur  Logo Planète Marathon le site 100% Marathon

Marathon de Millau              Donnez votre avis sur l'édition 2006

Le 23/09/2006 - 7ème édition - 285 arrivants                                                       

Clmt. Temps Nom Prénom Club Organisme Catégorie
1 2:44:54 ALARY Thierry Athle Tarn Passion * V1M/60 (+)
2 2:53:00 CLAUDIN Serge Biot Athletique Club V1M/61 (+)
3 2:59:18 TRANI Franck SEM/69 (+)
4 3:04:59 Jaouen Jean-Benoit Toucan Athletic Club V1M/58 (+)
5 3:07:24 KOWALSKI Thierry Us Carmaux V1M/64 (+)
6 3:15:50 MARTINEZ Christian V1M/61 (+)
7 3:16:14 OUGUERGOUZ Patrice V2M/55 (+)
8 3:17:55 FORICHON Eric Pass ' Ru V1M/67 (+)
9 3:18:15 AUSTRUY Fabien V1M/67 (+)
10 3:18:58 MOUNES Pierre V3M/46 (+)
11 3:20:34 FANTINO Lucien V1M/61 (+)
12 3:22:27 MORINAUD Philippe Pass ' Ru V1M/60 (+)
13 3:22:45 AUGUY Jeremy SEM/84 (+)
14 3:23:32 BARTHES Philippe V2M/57 (+)
15 3:24:32 DEWYNTER Christophe SEM/69 (+)
16 3:24:52 SAUVEPLANE Jean-marie V2M/52 (+)
17 3:27:24 VIEIRA DOS SANTOS Abilio Asptt Compiegne SEM/72 (+)
18 3:28:14 HOUMAD Mohamed V1M/67 (+)
19 3:29:08 VERHAEGHE Bruno SEM/70 (+)
20 3:29:53 HAUTBOIS Cyrille SEM/76 (+)
21 3:30:26 PARENT Lionel V1M/67 (+)
22 3:33:15 LAMANT Jacques V1M/64 (+)
23 3:33:28 THIERY François Pass ' Ru V1M/62 (+)
24 3:34:37 GASQUET Christophe V1M/66 (+)
25 3:35:08 PILETTE Emmanuel SEM/70 (+)
26 3:35:23 GUIBAL Lionel V1M/60 (+)
27 3:35:42 MULLER Daniel V2M/48 (+)
28 3:35:49 DELPAL Didier V1M/66 (+)
29 3:36:12 THOMANN Philippe V1M/63 (+)
30 3:37:11 BERTIN Jean-marc V1M/59 (+)
31 3:38:10 COULOMB David SEM/84 (+)
32 3:38:30 SALGUES Serge V1M/66 (+)
33 3:38:45 CAYZAC Alain V1M/65 (+)
34 3:38:57 LANNOU Rejane Athletisme Sud 22 * V1F/64 (+)
35 3:39:05 ROUSSELET Serge V2M/56 (+)
36 3:39:17 MALLET Xavier V2M/54 (+)
37 3:40:12 LAVABRE Ludovic SEM/78 (+)
38 3:43:49 ACHMET-MACHMETOW Serge V1M/60 (+)
39 3:44:52 GUINOT Pierre V2M/55 (+)
40 3:46:56 CHEIKH-BOUKAL Nadir V2M/52 (+)
41 3:47:38 BARGUES Eric V1M/62 (+)
42 3:48:06 Caille Dominique V1M/60 (+)
43 3:48:15 PEREIRA Eric V1M/63 (+)
44 3:48:34 VERGER Herve SEM/69 (+)
45 3:49:04 MUGUET Guy V2M/56 (+)
46 3:49:30 PORCHERON Michel V2M/55 (+)
47 3:49:32 MERCERON Christian V1M/63 (+)
48 3:51:44 ARNAUD Jacques V1M/65 (+)
49 3:52:17 Boissiere Frederic SEM/80 (+)
50 3:52:23 NIVEAULT Daniel V2M/56 (+)
51 3:53:30 COURBOT Christophe SEM/72 (+)
52 3:53:34 RAYNAL Rudy SEM/80 (+)
53 3:53:37 BERLAN Philippe Les Furets D Eiffage V1M/67 (+)
54 3:54:35 LOPEZ Laurent V1M/66 (+)
55 3:54:45 TRENVOUEZ Yannick V1M/67 (+)
56 3:54:55 GODIN Bruno V2M/56 (+)
57 3:55:15 BERLAND Jean V3M/38 (+)
58 3:56:03 WALKER Marc V1M/65 (+)
59 3:56:19 PROCIDA Xavier V1M/65 (+)
60 3:58:06 LAUDICINA Corinne SEF/71 (+)
61 3:59:05 TRESTOUR Jose Stade Laurentin Athletisme V2M/52 (+)
62 3:59:36 BOISSAUX Jean-michel V2M/56 (+)
63 3:59:39 PERRIN Christophe V1M/66 (+)
64 3:59:53 PICAUD Baptiste ESM/85 (+)
65 4:01:17 GIARRATANO François V2M/56 (+)
66 4:01:23 PROTHEAU Alain V2M/50 (+)
67 4:01:49 SERGENT Pascal V1M/62 (+)
68 4:02:33 DALLE Laurent V1M/60 (+)
69 4:02:38 JUAN Marc V2M/50 (+)
70 4:03:49 SANTINI Danielle V2F/56 (+)
71 4:03:52 LAPRAYE Bertrand V1M/63 (+)
72 4:04:01 JACQ Martine V1F/60 (+)
73 4:04:16 OUTILI Sophian SEM/72 (+)
74 4:06:19 QUENTIN Genevieve V1F/64 (+)
75 4:07:04 DE OLIVEIRA Carlos As Bondy V1M/59 (+)
76 4:07:46 GUILLET Yannick V1M/61 (+)
77 4:08:25 OROSEMANE -THECLE Gerard V2M/55 (+)
78 4:09:12 HUMBERT Martine V1F/58 (+)
79 4:09:40 BAROS Stephane Oc Chateaudun Bonneval A.* V1M/65 (+)
80 4:09:58 SERVAS Arnaud SEM/74 (+)
81 4:10:31 PIROCHE Jean-noel V2M/49 (+)
82 4:10:54 PISTER Pierre V2M/57 (+)
83 4:11:51 BOYER Sebastien SEM/83 (+)
84 4:11:53 LEGENDRE Emmanuelle SEF/82 (+)
85 4:12:00 CHARVOLIN Jean-paul V2M/50 (+)
86 4:12:03 MONTROZIER Thierry V1M/66 (+)
87 4:12:56 TALBOURDET Alexandra Pass ' Ru SEF/71 (+)
88 4:13:32 COULIBALY Daniel Pass ' Ru V2M/52 (+)
89 4:13:39 COULOMB Dominique V1M/59 (+)
90 4:14:06 VALAT Claude V2M/52 (+)
91 4:14:26 DARDER Christine Union Perpignan Athle 66* V2F/53 (+)
92 4:14:59 BEAU Claude V3M/43 (+)
93 4:15:25 JACQUOTTIN Pascal V1M/61 (+)
94 4:15:57 GUHUR Pierre V2M/49 (+)
95 4:16:15 FOULONNEAU Bruno V1M/66 (+)
96 4:16:43 VERNHETTES Ludovic SEM/79 (+)
97 4:18:01 DELMAS Sylvie V1F/63 (+)
98 4:18:03 VAYSSETTES Monique V1F/61 (+)
99 4:18:07 FALCOMATA Antoine V2M/52 (+)
100 4:18:48 REDO Philippe V1M/67 (+)
101 4:19:05 FAVIER Maryse Casc Oullins-lyon V3F/47 (+)
102 4:19:46 HERMANT François V1M/67 (+)
103 4:20:11 HUSSON François V1M/62 (+)
104 4:20:18 DESPLAS Philippe V1M/66 (+)
105 4:20:27 DELOGET Patrick V1M/60 (+)
106 4:21:17 BOSQUE Amable V3M/46 (+)
107 4:21:30 POIRIER Gilles V1M/66 (+)
108 4:21:34 NICOLA Alex V2M/55 (+)
109 4:21:49 MARUEJOULS Regis V1M/59 (+)
110 4:23:51 CHAMPAGNE William SEM/70 (+)
111 4:24:18 AVERSENG Gilbert V2M/53 (+)
112 4:25:08 BIENVENU Jacky V2M/51 (+)
113 4:25:14 GAUTHIER Jacques V3M/46 (+)
114 4:25:54 GAUTRON Hubert Pass ' Ru V2M/48 (+)
115 4:26:16 LE BRAS Michel V1M/61 (+)
116 4:26:18 DEPREZ Marelisa V1F/64 (+)
117 4:26:20 DEPREZ Thierry V1M/67 (+)
118 4:26:28 VALENTIN Vincent SEM/68 (+)
119 4:26:53 RACCA Charly V2M/50 (+)
120 4:27:50 HIRAT Jean-François V2M/57 (+)
121 4:28:24 ROUSSELLE Regis V1M/61 (+)
122 4:29:57 BECO Corinne V1F/61 (+)
123 4:30:08 DEDIEU Jacques V2M/56 (+)
124 4:30:10 DEDIEU Anne-claire V1F/60 (+)
125 4:30:32 RATINAUD Guy V3M/45 (+)
126 4:30:44 LE BOEDEC Roger V4M/36 (+)
127 4:30:50 DEHAY Fabienne V2F/55 (+)
128 4:30:57 COURTOIS Sylvestre V2M/51 (+)
129 4:31:38 BESSIEUX Magali SEF/78 (+)
130 4:32:11 MORERA Luc V2M/51 (+)
131 4:32:36 ANDREAN Fabienne SEF/70 (+)
132 4:32:43 WIERCIOCK Bernard Pass ' Ru V1M/61 (+)
133 4:32:52 GALES Veronique V1M/58 (+)
134 4:33:25 CROZE Stephan V2M/55 (+)
135 4:34:11 DARDIE Jacques V1M/60 (+)
136 4:34:42 FREY Jean-robert Stade Laurentin Athletisme V3M/45 (+)
137 4:36:54 MARTIN Pablo V2M/57 (+)
138 4:37:34 MOULINS Christian V1M/63 (+)
139 4:37:49 BAUDON Pierre V2M/49 (+)
140 4:38:32 AUZAS Jean-François SEM/69 (+)
141 4:38:40 GRANGET Laure V2F/54 (+)
142 4:39:22 ARLAUD Christine SEF/76 (+)
143 4:39:29 GIRALDI Pascal V2M/54 (+)
144 4:40:32 DEWYNTER Veronique SEF/68 (+)
145 4:41:08 LE POTTIER Theo V3M/46 (+)
146 4:41:55 GLIMOIS Alain V2M/48 (+)
147 4:42:19 PECHERAL Christian V2M/56 (+)
148 4:42:39 BLANC Didier V1M/67 (+)
149 4:43:45 BONNEFOY Didier V1M/61 (+)
150 4:44:25 VERNIERES Christine V1F/64 (+)
151 4:45:03 DUMAS Jean-François V2M/53 (+)
152 4:45:06 GIEN-ASARI Muriel SEF/70 (+)
153 4:46:01 MOYNAULT Sebastien SEM/71 (+)
154 4:46:03 RATHERY Stephanie SEF/70 (+)
155 4:46:20 LADET Alain V1M/67 (+)
156 4:46:52 PELOU Christophe SEM/68 (+)
157 4:47:23 CONREAUX Yannick V1M/63 (+)
158 4:49:12 LE CERF Christiane As Hopital Chubert Vannes V2F/50 (+)
159 4:49:30 JAIMET Bernard SEM/70 (+)
160 4:49:46 BOVAGNET Françoise V2F/57 (+)
161 4:50:46 DAVID Alain V1M/58 (+)
162 4:51:20 PHILIPPE Joan ESM/86 (+)
163 4:52:03 AMOUROUX Danielle V1F/65 (+)
164 4:53:36 FABRE Philippe V1M/66 (+)
165 4:54:00 LAHMER Fouzia V2F/57 (+)
166 4:54:33 PUEL Guy V2M/49 (+)
167 4:54:50 JUAN Gilles SEM/82 (+)
168 4:55:45 COSTECALDE Lionel SEM/75 (+)
169 4:56:24 LAUTARD Aline SEF/73 (+)
170 4:57:58 LAURIER Eric V1M/65 (+)
171 4:58:24 PEEREN Gilles V2M/52 (+)
172 4:58:31 LE DREAU Germain V2M/53 (+)
173 4:58:35 WINK Olivier SEM/75 (+)
174 5:00:05 RECORDIER Noelle V2F/55 (+)
175 5:00:39 TADDIO Catherine V1F/64 (+)
176 5:00:42 TADDIO Robert V2M/56 (+)
177 5:00:45 CASONI Roger V1M/60 (+)
178 5:00:47 JEANJEAN Roland V2M/54 (+)
179 5:01:15 DUMAS Marie-claude V2F/53 (+)
180 5:02:23 NEUGNOT Evelyne V2F/54 (+)
181 5:03:14 EWAN Anne V2F/56 (+)
182 5:03:18 MIGAYROU Veronique SEF/68 (+)
183 5:03:23 PEYRONNET Veronique V1F/63 (+)
184 5:04:12 TERLE Georges V2M/57 (+)
185 5:04:43 ROUAUD Jean-luc SEM/68 (+)
186 5:05:40 CONDON Evelyne V2F/55 (+)
187 5:05:50 BOSC Jerome SEM/70 (+)
188 5:07:16 PATERNOTTE Claire V2F/56 (+)
189 5:08:45 ENGELVIN Frederic V1M/66 (+)
190 5:10:12 BOVAGNET Maurice V2M/50 (+)
191 5:11:29 STRAZIERI Jean-marc V2M/56 (+)
192 5:11:31 VAESKEN Armelle V2F/55 (+)
193 5:11:42 GAMEL-MARTY Christine Pass ' Ru SEF/70 (+)
194 5:12:17 MUCKE Alain V1M/63 (+)
195 5:13:11 BIALAS Yves SEM/73 (+)
196 5:13:13 LABAU Philippe V1M/60 (+)
197 5:14:30 BROUILLET Eric SEM/70 (+)
198 5:14:42 DUCLOS Alain SEM/71 (+)
199 5:14:45 BEAUVALLET Maryse V2F/51 (+)
200 5:14:52 SOULAGES Veronique V1F/66 (+)
201 5:15:11 PIETRANTONI Zohra V2F/55 (+)
202 5:18:40 PIHAN Isabelle SEF/73 (+)
203 5:23:33 SICARD Stephan SEM/75 (+)
204 5:23:41 CAMPIOLI Nathalie Ua Tarbes-stado* SEF/72 (+)
205 5:25:25 EVIN Jean-michel V1M/65 (+)
206 5:25:56 COTTARD Odile V2F/55 (+)
207 5:26:43 DOUDAINE Michel V3M/39 (+)
208 5:28:06 LUZINIER Marie-jose V2F/54 (+)
209 5:28:45 TODESCO Philippe V1M/59 (+)
210 5:29:40 HERAIL Christine V1F/67 (+)
211 5:29:47 COSSON - GALTIER Dany V2F/55 (+)
212 5:30:16 COSTET Christine V1F/59 (+)
213 5:30:38 Schnaiderman Gilles V2M/56 (+)
214 5:30:42 BARTHELEMY Veronique SEF/72 (+)
215 5:31:44 BERGOUNHE Dave SEM/79 (+)
216 5:31:46 TOULOUSE Axel SEM/79 (+)
217 5:31:49 CRABOS Nadine V2F/57 (+)
218 5:32:41 ESPINOSA Jean-louis V3M/46 (+)
219 5:32:49 DELAPEYRE Rose-marie V2F/56 (+)
220 5:34:06 CLERC Paul Athetic Club Saint Affricain V3M/39 (+)
221 5:34:56 SALON Jean-marie V3M/41 (+)
222 5:39:37 CAYSSIALS Jean-luc V1M/61 (+)
223 5:40:04 PREVOT Marie-odile V3F/43 (+)
224 5:40:06 MAKKI Rana SEF/70 (+)
225 5:41:31 LE BONNIEC Martine V2F/52 (+)
226 5:43:24 TOBIAS Loic SEM/75 (+)
227 5:45:38 BARBIER - ST HILAIRE Alain V2M/52 (+)
228 5:51:28 ANSEL Rene V4M/37 (+)
229 5:52:25 MARTIN Janine V2F/51 (+)
230 5:52:28 HOTTOIS Christian V3M/46 (+)
231 5:53:24 POUZON Florian SEM/71 (+)
232 5:53:26 BOUTEILLE Clement V4M/37 (+)
233 5:55:24 SALON Josiane V3F/46 (+)
234 5:55:45 BOURRIER Florence V1F/63 (+)
235 5:55:48 GENTE Maryse V1F/63 (+)
236 5:57:51 DURAND Gilbert V2M/54 (+)
237 6:01:46 WINK Romain ESM/86 (+)
238 6:02:39 GAILLARD Brigitte V2F/57 (+)
239 6:02:42 DUPONT Yvonne V2F/48 (+)
240 6:07:38 COLIN Marinette V1F/58 (+)
241 6:07:48 COULIBALY Chantal V2F/52 (+)
242 6:07:59 GARRIGUE Catherine V1F/60 (+)
243 6:10:58 STRAZIERI Marie-france V1F/61 (+)
244 6:11:18 LEICHNIG Walter SEM/73 (+)
245 6:12:22 SALON Bernard V3M/38 (+)
246 6:13:50 GARRIC Colette V2F/52 (+)
247 6:15:23 FROMENT Helene SEF/70 (+)
248 6:21:28 ROUCH Jean louis V4M/36 (+)
249 6:24:28 BUSALB Bozena V1F/59 (+)
250 6:26:22 CAPORALE Jean V4M/35 (+)
251 6:26:24 SOYER Françoise V3F/42 (+)
252 6:26:44 VALLERICH Gerard V3M/42 (+)
253 6:26:47 GARNIER Patrick V2M/48 (+)
254 6:27:28 PELET Juliette V1F/58 (+)
255 6:27:38 GONTHIER Eliane V2F/51 (+)
256 6:27:45 BEUGNET Marie-line V1F/58 (+)
257 6:30:28 BOIJOUT Jean V4M/25 (+)
258 6:38:15 MIQUEL Marie-andree V2F/56 (+)
259 6:40:10 DASTUGUE Vincent V3M/47 (+)
260 6:40:13 DASTUGUE Isabelle V2F/48 (+)
261 6:42:45 CALVET Dominique V2F/56 (+)
262 6:42:56 CALVET Chantal V2F/55 (+)
263 6:43:29 DAVID Jean-pierre V2M/53 (+)
264 6:44:59 AGAESSE Evelyne V2F/55 (+)
265 6:45:04 MAUGE Stephane SEM/77 (+)
266 6:46:11 COIGNARD Muriel V1F/60 (+)
267 6:47:10 QUINTANA Maria V1F/62 (+)
268 6:47:58 MARTY DE CAUNES Aimee V3F/44 (+)
269 6:49:57 BENET Evelyne V1F/61 (+)
270 6:51:18 MOTTU Fabienne V1F/60 (+)
271 6:51:20 FORTAGE Arlette V4F/37 (+)
272 6:51:26 PARIAUD Josiane V2F/50 (+)
273 7:04:55 MILLOT Jean-pierre V2M/55 (+)
274 7:16:09 AUDIBERT Patrick V3M/47 (+)
275 7:16:41 LORCY Jacques V2M/50 (+)
276 7:21:19 LUQUET Michele V2F/48 (+)
277 7:41:51 GRAVRAN Christine V1F/61 (+)
278 7:41:52 POITOU Annie V2F/55 (+)
279 7:52:34 SECEMBER Veronique V1F/62 (+)
280 8:07:52 DAIBOUN Mouloud V3M/45 (+)
281 8:32:36 LANTRAIN Marie-madeleine V3F/38 (+)
282 8:53:31 PORTETS Martine V2F/55 (+)
283 8:53:49 PORTETS Dominique V2M/53 (+)
284 8:54:20 DALBOSC Frederic V1M/62 (+)
285 8:54:22 LESPES Monique SEF/71 (+)